When you browse on this site, cookies collect data to enhance your experience and personalize the content and advertising you see.
Visit our Privacy Policy to learn more. By continuing to use the site, you agree to this use of cookies and data.
  • In Österreich
  • Länderverzeichnis
  • Für 7 Tage
  • Wassertemperatur
  • Wetterkarte
  • News
  • Widgets
  • user-avatar
    Anmelden

    Stündliche Wetter Bragansa

    Heute, 3 April, Freitag

    Zeit Temperatur Niederschläge Wind Luftdruck Luftfeuchtigkeit
    00:00 +8°C° 0 mm 2 m/S 713 mmHg 75%
    01:00 +7°C° 0 mm 2 m/S 712 mmHg 77%
    02:00 +6°C° 0 mm 2 m/S 712 mmHg 80%
    03:00 +5°C° 0 mm 2 m/S 712 mmHg 83%
    04:00 +5°C° 0 mm 2 m/S 712 mmHg 85%
    05:00 +4°C° 0 mm 2 m/S 712 mmHg 86%
    06:00 +3°C° 0 mm 2 m/S 712 mmHg 88%
    07:00 +5°C° 0 mm 2 m/S 712 mmHg 78%
    08:00 +7°C° 0 mm 2 m/S 712 mmHg 69%
    09:00 +9°C° 0 mm 2 m/S 712 mmHg 60%
    10:00 +12°C° 0 mm 2 m/S 712 mmHg 55%
    11:00 +14°C° 0 mm 1 m/S 712 mmHg 50%
    12:00 +16°C° 0 mm 1 m/S 712 mmHg 46%
    13:00 +18°C° 0 mm 1 m/S 712 mmHg 43%
    14:00 +19°C° 0 mm 1 m/S 712 mmHg 41%
    15:00 +20°C° 0 mm 1 m/S 711 mmHg 39%
    16:00 +19°C° 0 mm 1 m/S 711 mmHg 42%
    17:00 +18°C° 0 mm 1 m/S 711 mmHg 46%
    18:00 +16°C° 0 mm 1 m/S 711 mmHg 50%
    19:00 +14°C° 0 mm 1 m/S 711 mmHg 53%
    20:00 +12°C° 0 mm 1 m/S 711 mmHg 56%
    21:00 +10°C° 0 mm 2 m/S 711 mmHg 60%
    22:00 +9°C° 0 mm 2 m/S 711 mmHg 62%
    23:00 +8°C° 0 mm 2 m/S 711 mmHg 64%

    Morgen, 4 April, Samstag

    Zeit Temperatur Niederschläge Wind Luftdruck Luftfeuchtigkeit
    00:00 +9°C° 0 mm 1 m/S 711 mmHg 66%
    01:00 +8°C° 0 mm 1 m/S 711 mmHg 68%
    02:00 +8°C° 0 mm 1 m/S 711 mmHg 69%
    03:00 +8°C° 0 mm 1 m/S 711 mmHg 71%
    04:00 +7°C° 0 mm 1 m/S 711 mmHg 72%
    05:00 +7°C° 0 mm 1 m/S 711 mmHg 73%
    06:00 +6°C° 0 mm 2 m/S 711 mmHg 74%
    07:00 +8°C° 0 mm 2 m/S 711 mmHg 68%
    08:00 +10°C° 0 mm 2 m/S 711 mmHg 63%
    09:00 +13°C° 0 mm 2 m/S 711 mmHg 57%
    10:00 +15°C° 0 mm 2 m/S 711 mmHg 53%
    11:00 +17°C° 0 mm 3 m/S 711 mmHg 48%
    12:00 +18°C° 0 mm 4 m/S 711 mmHg 44%
    13:00 +17°C° 0 mm 5 m/S 711 mmHg 44%
    14:00 +17°C° 0 mm 5 m/S 711 mmHg 44%
    15:00 +17°C° 0 mm 6 m/S 710 mmHg 44%
    16:00 +16°C° 0 mm 5 m/S 710 mmHg 51%
    17:00 +15°C° 0 mm 5 m/S 710 mmHg 58%
    18:00 +14°C° 0 mm 4 m/S 710 mmHg 66%
    19:00 +13°C° 0 mm 3 m/S 710 mmHg 67%
    20:00 +13°C° 0 mm 3 m/S 711 mmHg 68%
    21:00 +12°C° 0 mm 3 m/S 711 mmHg 69%
    22:00 +11°C° 0 mm 3 m/S 711 mmHg 71%
    23:00 +12°C° 0 mm 2 m/S 711 mmHg 73%

    übermorgen, 5 April, Sonntag

    Zeit Temperatur Niederschläge Wind Luftdruck Luftfeuchtigkeit
    00:00 +12°C° 0 mm 2 m/S 711 mmHg 76%
    01:00 +10°C° 0 mm 2 m/S 711 mmHg 80%
    02:00 +10°C° 0 mm 2 m/S 710 mmHg 84%
    03:00 +9°C° 0 mm 2 m/S 710 mmHg 88%
    04:00 +10°C° 0 mm 2 m/S 710 mmHg 88%
    05:00 +10°C° 0 mm 2 m/S 710 mmHg 88%
    06:00 +10°C° 0 mm 2 m/S 711 mmHg 88%
    07:00 +11°C° 0 mm 3 m/S 711 mmHg 83%
    08:00 +12°C° 0 mm 4 m/S 711 mmHg 78%
    09:00 +14°C° 0 mm 5 m/S 711 mmHg 73%
    10:00 +15°C° 0.1 mm 5 m/S 712 mmHg 69%
    11:00 +16°C° 0.1 mm 6 m/S 712 mmHg 65%
    12:00 +17°C° 0.1 mm 7 m/S 712 mmHg 61%
    13:00 +16°C° 0.4 mm 6 m/S 711 mmHg 66%
    14:00 +15°C° 0.4 mm 6 m/S 711 mmHg 71%
    15:00 +14°C° 0.4 mm 5 m/S 710 mmHg 76%
    16:00 +13°C° 0.7 mm 4 m/S 710 mmHg 81%
    17:00 +13°C° 0.7 mm 4 m/S 710 mmHg 87%
    18:00 +12°C° 0.7 mm 3 m/S 710 mmHg 92%
    19:00 +12°C° 0.4 mm 3 m/S 711 mmHg 93%
    20:00 +12°C° 0.4 mm 3 m/S 711 mmHg 94%
    21:00 +12°C° 0.4 mm 3 m/S 711 mmHg 95%
    22:00 +13°C° 0.5 mm 2 m/S 712 mmHg 96%
    23:00 +13°C° 0.5 mm 2 m/S 712 mmHg 96%

    6 April, Montag

    Zeit Temperatur Niederschläge Wind Luftdruck Luftfeuchtigkeit
    00:00 +13°C° 0.5 mm 2 m/S 712 mmHg 96%
    01:00 +13°C° 0.2 mm 2 m/S 712 mmHg 96%
    02:00 +12°C° 0.2 mm 2 m/S 712 mmHg 96%
    03:00 +12°C° 0.2 mm 2 m/S 712 mmHg 96%
    04:00 +11°C° 0 mm 1 m/S 713 mmHg 96%
    05:00 +11°C° 0 mm 1 m/S 713 mmHg 96%
    06:00 +10°C° 0 mm 1 m/S 713 mmHg 95%
    07:00 +11°C° 0 mm 1 m/S 714 mmHg 90%
    08:00 +13°C° 0 mm 1 m/S 714 mmHg 85%
    09:00 +14°C° 0 mm 1 m/S 715 mmHg 80%
    10:00 +15°C° 0.1 mm 1 m/S 715 mmHg 73%
    11:00 +18°C° 0.1 mm 1 m/S 715 mmHg 66%
    12:00 +18°C° 0.1 mm 2 m/S 716 mmHg 59%
    13:00 +18°C° 0.2 mm 2 m/S 716 mmHg 59%
    14:00 +18°C° 0.2 mm 2 m/S 716 mmHg 60%
    15:00 +19°C° 0.2 mm 2 m/S 715 mmHg 60%
    16:00 +18°C° 0.5 mm 2 m/S 715 mmHg 64%
    17:00 +17°C° 0.5 mm 2 m/S 715 mmHg 69%
    18:00 +18°C° 0.5 mm 1 m/S 715 mmHg 74%
    19:00 +16°C° 0.2 mm 1 m/S 716 mmHg 78%
    20:00 +14°C° 0.2 mm 1 m/S 716 mmHg 82%
    21:00 +13°C° 0.2 mm 1 m/S 717 mmHg 86%
    22:00 +12°C° 0 mm 1 m/S 717 mmHg 88%
    23:00 +10°C° 0 mm 2 m/S 717 mmHg 89%

    7 April, Dienstag

    Zeit Temperatur Niederschläge Wind Luftdruck Luftfeuchtigkeit
    00:00 +10°C° 0 mm 3 m/S 717 mmHg 91%
    01:00 +9°C° 0 mm 2 m/S 717 mmHg 92%
    02:00 +8°C° 0 mm 2 m/S 717 mmHg 92%
    03:00 +9°C° 0 mm 1 m/S 717 mmHg 93%
    04:00 +9°C° 0 mm 1 m/S 717 mmHg 93%
    05:00 +8°C° 0 mm 1 m/S 717 mmHg 93%
    06:00 +8°C° 0 mm 1 m/S 717 mmHg 93%
    07:00 +10°C° 0 mm 1 m/S 718 mmHg 88%
    08:00 +12°C° 0 mm 1 m/S 718 mmHg 83%
    09:00 +13°C° 0 mm 2 m/S 718 mmHg 78%
    10:00 +15°C° 0 mm 2 m/S 718 mmHg 71%
    11:00 +18°C° 0 mm 1 m/S 718 mmHg 64%
    12:00 +21°C° 0 mm 1 m/S 719 mmHg 58%
    13:00 +21°C° 0 mm 1 m/S 718 mmHg 54%
    14:00 +22°C° 0 mm 1 m/S 718 mmHg 50%
    15:00 +23°C° 0 mm 1 m/S 718 mmHg 47%
    16:00 +22°C° 0 mm 1 m/S 718 mmHg 51%
    17:00 +22°C° 0 mm 1 m/S 718 mmHg 55%
    18:00 +21°C° 0 mm 1 m/S 717 mmHg 59%
    19:00 +19°C° 0 mm 1 m/S 718 mmHg 64%
    20:00 +18°C° 0 mm 1 m/S 718 mmHg 68%
    21:00 +16°C° 0 mm 1 m/S 718 mmHg 73%
    22:00 +15°C° 0 mm 1 m/S 718 mmHg 78%
    23:00 +14°C° 0 mm 1 m/S 718 mmHg 82%

    8 April, Mittwoch

    Zeit Temperatur Niederschläge Wind Luftdruck Luftfeuchtigkeit
    00:00 +14°C° 0 mm 1 m/S 719 mmHg 86%
    01:00 +13°C° 0 mm 1 m/S 718 mmHg 87%
    02:00 +13°C° 0 mm 1 m/S 718 mmHg 88%
    03:00 +13°C° 0 mm 1 m/S 718 mmHg 89%
    04:00 +13°C° 0 mm 1 m/S 718 mmHg 89%
    05:00 +13°C° 0 mm 1 m/S 718 mmHg 89%
    06:00 +13°C° 0 mm 1 m/S 718 mmHg 88%
    07:00 +14°C° 0 mm 1 m/S 718 mmHg 83%
    08:00 +15°C° 0 mm 1 m/S 718 mmHg 77%
    09:00 +16°C° 0 mm 1 m/S 719 mmHg 72%
    10:00 +16°C° 0.1 mm 2 m/S 719 mmHg 72%
    11:00 +16°C° 0.1 mm 2 m/S 719 mmHg 72%
    12:00 +16°C° 0.1 mm 3 m/S 719 mmHg 72%
    13:00 +16°C° 0.1 mm 2 m/S 719 mmHg 73%
    14:00 +16°C° 0.1 mm 2 m/S 719 mmHg 74%
    15:00 +16°C° 0.1 mm 2 m/S 718 mmHg 75%
    16:00 +15°C° 0.2 mm 2 m/S 718 mmHg 79%
    17:00 +14°C° 0.2 mm 1 m/S 718 mmHg 83%
    18:00 +13°C° 0.2 mm 1 m/S 718 mmHg 87%
    19:00 +13°C° 0.5 mm 1 m/S 718 mmHg 90%
    20:00 +13°C° 0.5 mm 1 m/S 718 mmHg 92%
    21:00 +12°C° 0.5 mm 1 m/S 719 mmHg 95%
    22:00 +12°C° 0.2 mm 1 m/S 719 mmHg 95%
    23:00 +12°C° 0.2 mm 1 m/S 719 mmHg 96%
    Mehr zeigen